GAOFEN 1-03

Satellite information

Favourite Embed

Satellite Type and Status

PAYLOADIN ORBIT

Key statistics

Satellite GAOFEN 1-03 at a glance.

Uptime

2815

Days in orbit

Revolutions

≈ 14.8

Per day

Orbit

SSO

Sun Synchronous Orbit

Inclination

98.1

Latest

Satellite identification and parameters

Extended collection of information and parameters for GAOFEN 1-03.

Object identification

Identified? True

Debris? False

Object name: GAOFEN 1-03

International designator: 2018-031B

Object number (NORAD): 43260

Object ID (CCSDS): 43260

Country: PEOPLES REPUBLIC OF CHINA (PRC)

Current information (Y/N): Y

RCS size: LARGE

Orbital parameters

Period: 97.532 minutes

Inclination: 98.08 deg

SMA: 7018.735 km

Apoapsis: 642.013 km

Periapsis: 639.187 km

RAAN: 43.9626 deg

Eccentricy: 0.00020134

Argument of periapsis: 324.306 deg

Mean anomaly: 35.8014 deg

Mean motion: 14.76435539 rev/day

Mean motion (dot): 0.00001504 rev/day2

B* drag term: 0.00022369076 1/REarth

Two-line elements (TLE)

Creation date: Dec. 12, 2025, 10:14 a.m.

Reference frame: TEME

Reference center: EARTH

Epoch: Dec. 12, 2025, 7:06 a.m. UTC

TLE line 0: 0 GAOFEN 1-03

TLE line 1: 1 43260U 18031B 25346.29648772 .00001504 00000-0 22369-3 0 9998

TLE line 2: 2 43260 98.0800 43.9626 0002013 324.3060 35.8014 14.76435539415116

Live tracking on map

Real-time ground track for satellite GAOFEN 1-03.

In-orbit conjunctions

There are no conjunctions computed for GAOFEN 1-03, at the moment. Check back to stay up to date, as we update our databases every day.

Go to all conjunctions

Associated space launch

Gaofen is a series of Chinese civilian Earth observation satellites. These three satellites are to be operated together with the Gaofen-1 satellite, which was launched in 2013.

GAOFEN 1-03 was lifted into orbit during the mission ‘Long March 4C | Gaofen 1-02, 1-03 & 1-04’, on board a Long March 4C space rocket.

The launch took place on March 31, 2018, 3:22 a.m. from Launch Complex 9.

For more information about the launch, click the button.

Launch to space Long March 4C | Gaofen 1-02, 1-03 & 1-04
Long March 4C | Gaofen 1-02, 1-03 & 1-04

Agency: N/A

Status: Launch Successful

Launch date: March 31, 2018, 3:22 a.m. UTC

Rocket: Long March 4C

Launch pad: Launch Complex 9

Location: Taiyuan Satellite Launch Center, People's Republic of China

...

Latest news about this satellite

There are no fresh news available about this satellite. Check back as we update our databases every day.


Newsletter sign-up

Weekly statistics, charts and insights to help you stay on top of the space industry.